Weather History for Tin City, AK

Change the Weather History Date:

Sunday, August 18, 2013

  Actual Average Record
Temperature  
Mean Temperature 48 °F -  
Max Temperature 50 °F 47 °F 63 °F (1996)
Min Temperature 46 °F 40 °F 35 °F (1997)
Degree Days  
Heating Degree Days 17    
Moisture  
Dew Point 47 °F    
Average Humidity 97    
Maximum Humidity 100    
Minimum Humidity 90    
Precipitation  
Precipitation 0.20 in - - ()
Sea Level Pressure  
Sea Level Pressure 29.58 in    
Wind  
Wind Speed 11 mph (SSW)    
Max Wind Speed 24 mph    
Max Gust Speed 29 mph    
Visibility 7 miles    
Events Fog , Rain    
Averages and records for this station are not official NWS values.
T = Trace of Precipitation, MM = Missing Value Source: NWS Daily Summary

Daily Weather History Graph

Daily Weather History Graph

Search for Another Location

Airport:

Trip Planner

Search our weather history database for the weather conditions in past years. The results will help you decide how hot, cold, wet, or windy it might be!

Date:

Astronomy

Aug. 18, 2013 Rise Set
Actual Time 7:04 AM AKDT 11:23 PM AKDT
Civil Twilight 5:56 AM AKDT 12:30 AM AKDT
Nautical Twilight 3:47 AM AKDT 2:42 AM AKDT
Astronomical Twilight Sun does not rise Sun does not rise
Moon 9:57 PM AKDT (8/18) 3:51 AM AKDT (8/18)
Length of Visible Light 18h 34m
Length of Day
16h 19m
Waxing Gibbous, 93% of the Moon is Illuminated
Aug 18
Waxing Gibbous
Aug 20
Full
Aug 28
Last Quarter
Sep 5
New
Sep 12
First Quarter

Hourly Weather History & Observations

Time (AKDT) Temp. Windchill Dew Point Humidity Pressure Visibility Wind Dir Wind Speed Gust Speed Precip Events Conditions
12:55 AM 46.8 °F - 44.4 °F 92% 29.73 in 10.0 mi SSW 3.5 mph - N/A   Clear
1:55 AM 46.6 °F - 45.5 °F 96% 29.73 in 10.0 mi SW 5.8 mph - N/A   Clear
2:55 AM 47.5 °F - 44.8 °F 90% 29.72 in 10.0 mi SSW 5.8 mph - N/A   Clear
3:55 AM 47.8 °F - 45.0 °F 90% 29.71 in 10.0 mi SSW 6.9 mph - N/A   Clear
4:55 AM 48.4 °F - 45.9 °F 91% 29.70 in 10.0 mi SSW 9.2 mph - N/A   Clear
5:55 AM 49.3 °F - 47.1 °F 92% 29.68 in 10.0 mi SSW 10.4 mph - N/A   Clear
6:36 AM 48.2 °F - 48.2 °F 100% 29.68 in 10.0 mi SW 10.4 mph - N/A   Light Drizzle
6:55 AM 48.6 °F - 48.0 °F 98% 29.67 in 10.0 mi SSW 9.2 mph - N/A Rain Light Rain Showers
7:16 AM 48.2 °F - 48.2 °F 100% 29.66 in 10.0 mi SW 9.2 mph - N/A   Mostly Cloudy
7:55 AM 48.9 °F - 48.6 °F 99% 29.65 in 1.0 mi SSW 10.4 mph - N/A   Light Drizzle
8:16 AM 50.0 °F - 48.2 °F 94% 29.65 in 10.0 mi South 17.3 mph - N/A   Mostly Cloudy
8:36 AM 50.0 °F - 48.2 °F 94% 29.64 in 10.0 mi South 16.1 mph - N/A   Mostly Cloudy
8:55 AM 50.2 °F - 48.6 °F 94% 29.64 in 10.0 mi South 18.4 mph - N/A   Mostly Cloudy
9:16 AM 50.0 °F - 48.2 °F 94% 29.63 in 10.0 mi South 16.1 mph - N/A   Mostly Cloudy
9:55 AM 49.8 °F - 49.1 °F 97% 29.62 in 10.0 mi South 16.1 mph - N/A   Overcast
10:36 AM 48.2 °F - 48.2 °F 100% 29.62 in 1.5 mi SSW 16.1 mph - N/A Rain Light Rain
10:55 AM 48.7 °F - 48.2 °F 98% 29.62 in 10.0 mi SSW 18.4 mph - N/A   Mostly Cloudy
11:55 AM 47.8 °F - 47.1 °F 97% 29.61 in 8.0 mi SSW 16.1 mph - N/A   Light Drizzle
12:55 PM 48.2 °F - 47.5 °F 97% 29.60 in 8.0 mi South 17.3 mph - 0.03 in Rain Light Rain Showers
1:55 PM 48.4 °F - 47.7 °F 97% 29.57 in 7.0 mi South 19.6 mph 23.0 mph 0.06 in Rain Light Rain
2:16 PM 48.2 °F - 48.2 °F 100% 29.56 in 10.0 mi South 19.6 mph - N/A   Overcast
2:55 PM 48.2 °F - 47.8 °F 99% 29.54 in 8.0 mi SSW 21.9 mph - N/A   Mostly Cloudy
3:55 PM 48.7 °F - 48.4 °F 99% 29.52 in 5.0 mi South 24.2 mph 28.8 mph N/A   Mostly Cloudy
4:36 PM 48.2 °F - 48.2 °F 100% 29.51 in 2.0 mi SSW 20.7 mph 27.6 mph N/A Rain Light Rain
4:55 PM 48.6 °F - 48.4 °F 99% 29.50 in 0.5 mi South 24.2 mph - 0.02 in Rain Light Rain
5:55 PM 48.7 °F - 48.6 °F 99% 29.47 in 0.2 mi South 21.9 mph 27.6 mph 0.06 in Rain Light Rain
6:16 PM 48.2 °F - 48.2 °F 100% 29.47 in 0.5 mi SSW 20.7 mph - N/A Rain Light Rain
6:36 PM 48.2 °F - 48.2 °F 100% 29.47 in 2.5 mi SSW 16.1 mph - N/A Rain Light Rain
6:55 PM 48.2 °F - 47.8 °F 99% 29.47 in 5.0 mi SSW 18.4 mph - 0.03 in   Light Drizzle
6:56 PM 48.2 °F - 48.2 °F 100% 29.47 in 6.0 mi SSW 19.6 mph - N/A   Mostly Cloudy
7:55 PM 46.8 °F - 46.6 °F 99% 29.47 in 0.2 mi SSW 9.2 mph - N/A Fog , Rain Light Rain Showers
8:55 PM 46.6 °F - 46.6 °F 100% 29.46 in 0.2 mi South 3.5 mph - 0.00 in Fog , Rain Light Rain
9:36 PM 46.4 °F 45.2 °F 46.4 °F 100% 29.47 in 0.8 mi SSE 3.5 mph - N/A Rain Light Rain Showers
10:55 PM 48.0 °F - 47.3 °F 97% 29.47 in 10.0 mi Variable 3.5 mph - N/A   Mostly Cloudy
11:55 PM 46.9 °F - 46.6 °F 99% 29.49 in 10.0 mi North 10.4 mph - N/A   Overcast